Time,TemperatureF,DewpointF,PressureIn,WindDirection,WindDirectionDegrees,WindSpeedMPH,WindSpeedGustMPH,Humidity,HourlyPrecipIn,Conditions,Clouds,dailyrainin,SoftwareType,DateUTC
2013-03-01 00:02:00,37.0,30.0,30.02,WNW,285,0.0,0.0,75,0.00,,,0.00,,2013-03-01 06:02:00,
2013-03-01 00:11:00,37.0,30.0,30.02,WNW,285,0.0,0.0,76,0.00,,,0.00,,2013-03-01 06:11:00,
2013-03-01 00:21:00,37.0,30.0,30.02,WNW,285,0.0,0.0,76,0.00,,,0.00,,2013-03-01 06:21:00,
2013-03-01 00:32:00,37.0,30.0,30.02,WNW,285,1.0,0.0,76,0.00,,,0.00,,2013-03-01 06:32:00,
2013-03-01 00:42:00,37.0,30.0,30.02,WNW,285,1.0,0.0,76,0.00,,,0.00,,2013-03-01 06:42:00,
2013-03-01 00:52:00,37.0,30.0,30.02,NW,311,0.0,0.0,76,0.00,,,0.00,,2013-03-01 06:52:00,
2013-03-01 01:01:00,37.0,30.0,30.02,NW,311,0.0,0.0,77,0.00,,,0.00,,2013-03-01 07:01:00,
2013-03-01 01:11:00,37.0,30.0,30.02,NW,311,0.0,0.0,77,0.00,,,0.00,,2013-03-01 07:11:00,
2013-03-01 01:22:00,37.0,30.0,30.01,West,262,0.0,0.0,77,0.00,,,0.00,,2013-03-01 07:22:00,
2013-03-01 01:32:00,37.0,31.0,30.01,West,262,0.0,0.0,78,0.00,,,0.00,,2013-03-01 07:32:00,
2013-03-01 01:42:00,37.0,31.0,30.01,West,262,0.0,0.0,78,0.00,,,0.00,,2013-03-01 07:42:00,
2013-03-01 01:52:00,37.0,31.0,30.01,West,262,0.0,0.0,78,0.00,,,0.00,,2013-03-01 07:52:00,
2013-03-01 02:01:00,37.0,31.0,30.01,West,260,0.0,0.0,79,0.00,,,0.00,,2013-03-01 08:01:00,
2013-03-01 02:11:00,37.0,31.0,30.01,West,260,0.0,0.0,79,0.00,,,0.00,,2013-03-01 08:11:00,
2013-03-01 02:22:00,37.0,31.0,30.02,WNW,288,0.0,0.0,79,0.00,,,0.00,,2013-03-01 08:22:00,
2013-03-01 02:32:00,37.0,31.0,30.01,NW,308,0.0,0.0,80,0.00,,,0.00,,2013-03-01 08:32:00,
2013-03-01 02:42:00,37.0,31.0,30.01,NW,308,0.0,0.0,80,0.00,,,0.00,,2013-03-01 08:42:00,
2013-03-01 02:53:00,37.0,32.0,30.02,WNW,291,0.0,0.0,81,0.00,,,0.00,,2013-03-01 08:53:00,
2013-03-01 03:02:00,37.0,32.0,30.02,NW,323,0.0,0.0,81,0.00,,,0.00,,2013-03-01 09:02:00,
2013-03-01 03:11:00,37.0,32.0,30.02,NW,323,0.0,0.0,81,0.00,,,0.00,,2013-03-01 09:11:00,
2013-03-01 03:22:00,36.0,31.0,30.02,WNW,297,0.0,0.0,82,0.00,,,0.00,,2013-03-01 09:22:00,
2013-03-01 03:32:00,36.0,31.0,30.01,NW,308,0.0,0.0,82,0.00,,,0.00,,2013-03-01 09:32:00,
2013-03-01 03:42:00,36.0,31.0,30.01,NW,308,0.0,0.0,82,0.00,,,0.00,,2013-03-01 09:42:00,
2013-03-01 03:52:00,36.0,31.0,30.01,NW,318,0.0,0.0,82,0.00,,,0.00,,2013-03-01 09:52:00,
2013-03-01 04:02:00,36.0,31.0,30.01,WNW,290,0.0,0.0,83,0.00,,,0.00,,2013-03-01 10:02:00,
2013-03-01 04:11:00,36.0,31.0,30.01,NW,309,0.0,0.0,83,0.00,,,0.00,,2013-03-01 10:11:00,
2013-03-01 04:21:00,36.0,31.0,30.01,NW,309,0.0,0.0,83,0.00,,,0.00,,2013-03-01 10:21:00,
2013-03-01 04:32:00,36.0,32.0,30.01,WNW,283,2.0,0.0,84,0.00,,,0.00,,2013-03-01 10:32:00,
2013-03-01 04:42:00,36.0,32.0,30.01,WNW,283,2.0,0.0,84,0.00,,,0.00,,2013-03-01 10:42:00,
2013-03-01 04:52:00,36.0,32.0,30.01,NNW,333,1.0,0.0,84,0.00,,,0.00,,2013-03-01 10:52:00,
2013-03-01 05:01:00,36.0,32.0,30.01,NW,316,0.0,0.0,84,0.00,,,0.00,,2013-03-01 11:01:00,
2013-03-01 05:11:00,36.0,32.0,30.01,NW,316,0.0,0.0,84,0.00,,,0.00,,2013-03-01 11:11:00,
2013-03-01 05:22:00,36.0,32.0,30.02,West,260,0.0,0.0,84,0.00,,,0.00,,2013-03-01 11:22:00,
2013-03-01 05:32:00,36.0,32.0,30.01,West,274,0.0,0.0,85,0.00,,,0.00,,2013-03-01 11:32:00,
2013-03-01 05:42:00,36.0,32.0,30.01,West,274,0.0,0.0,85,0.00,,,0.00,,2013-03-01 11:42:00,
2013-03-01 05:52:00,36.0,32.0,30.02,WSW,252,0.0,0.0,85,0.00,,,0.00,,2013-03-01 11:52:00,
2013-03-01 06:01:00,36.0,32.0,30.02,WSW,252,0.0,0.0,85,0.00,,,0.00,,2013-03-01 12:01:00,
2013-03-01 06:11:00,36.0,32.0,30.02,WSW,252,0.0,0.0,85,0.00,,,0.00,,2013-03-01 12:11:00,
2013-03-01 06:21:00,36.0,32.0,30.02,WSW,252,0.0,0.0,86,0.00,,,0.00,,2013-03-01 12:21:00,
2013-03-01 06:32:00,36.0,32.0,30.02,WSW,252,0.0,0.0,86,0.00,,,0.00,,2013-03-01 12:32:00,
2013-03-01 06:42:00,36.0,32.0,30.02,WSW,252,0.0,0.0,86,0.00,,,0.00,,2013-03-01 12:42:00,
2013-03-01 06:52:00,36.0,32.0,30.02,WNW,298,0.0,3.0,86,0.00,,,0.00,,2013-03-01 12:52:00,
2013-03-01 07:01:00,36.0,32.0,30.02,WNW,293,0.0,0.0,86,0.00,,,0.00,,2013-03-01 13:01:00,
2013-03-01 07:11:00,36.0,33.0,30.03,West,278,0.0,0.0,87,0.00,,,0.00,,2013-03-01 13:11:00,
2013-03-01 07:21:00,36.0,33.0,30.03,West,278,0.0,0.0,87,0.00,,,0.00,,2013-03-01 13:21:00,
2013-03-01 07:32:00,36.0,33.0,30.03,WNW,298,2.0,0.0,87,0.00,,,0.00,,2013-03-01 13:32:00,
2013-03-01 07:41:00,36.0,33.0,30.03,WNW,298,2.0,0.0,87,0.00,,,0.00,,2013-03-01 13:41:00,
2013-03-01 07:52:00,37.0,34.0,30.04,WNW,288,0.0,0.0,87,0.00,,,0.00,,2013-03-01 13:52:00,
2013-03-01 08:01:00,37.0,34.0,30.04,West,278,2.0,0.0,87,0.00,,,0.00,,2013-03-01 14:01:00,
2013-03-01 08:11:00,37.0,34.0,30.04,West,278,2.0,0.0,87,0.00,,,0.00,,2013-03-01 14:11:00,
2013-03-01 08:21:00,37.0,33.0,30.04,West,280,0.0,0.0,86,0.00,,,0.00,,2013-03-01 14:21:00,
2013-03-01 08:32:00,37.0,33.0,30.04,WNW,287,0.0,0.0,86,0.00,,,0.00,,2013-03-01 14:32:00,
2013-03-01 08:41:00,37.0,33.0,30.04,WNW,287,0.0,0.0,86,0.00,,,0.00,,2013-03-01 14:41:00,
2013-03-01 08:52:00,38.0,34.0,30.04,West,274,0.0,0.0,85,0.00,,,0.00,,2013-03-01 14:52:00,
2013-03-01 09:01:00,38.0,34.0,30.04,SSW,193,0.0,0.0,84,0.00,,,0.00,,2013-03-01 15:01:00,
2013-03-01 09:11:00,38.0,33.0,30.05,WNW,301,4.0,0.0,82,0.00,,,0.00,,2013-03-01 15:11:00,
2013-03-01 09:21:00,38.0,33.0,30.05,WNW,301,4.0,0.0,82,0.00,,,0.00,,2013-03-01 15:21:00,
2013-03-01 09:31:00,39.0,33.0,30.04,NW,307,3.0,0.0,79,0.00,,,0.00,,2013-03-01 15:31:00,
2013-03-01 09:42:00,39.0,33.0,30.04,NW,307,3.0,0.0,79,0.00,,,0.00,,2013-03-01 15:42:00,
2013-03-01 09:52:00,39.0,33.0,30.04,WNW,283,1.0,0.0,78,0.00,,,0.00,,2013-03-01 15:52:00,
2013-03-01 10:01:00,40.0,33.0,30.04,WSW,243,0.0,0.0,75,0.00,,,0.00,,2013-03-01 16:01:00,
2013-03-01 10:11:00,40.0,33.0,30.04,WSW,243,0.0,0.0,75,0.00,,,0.00,,2013-03-01 16:11:00,
2013-03-01 10:21:00,41.0,33.0,30.04,SW,222,0.0,0.0,73,0.00,,,0.00,,2013-03-01 16:21:00,
2013-03-01 10:32:00,43.0,34.0,30.04,West,274,0.0,0.0,69,0.00,,,0.00,,2013-03-01 16:32:00,
2013-03-01 10:41:00,43.0,34.0,30.04,West,274,0.0,0.0,69,0.00,,,0.00,,2013-03-01 16:41:00,
2013-03-01 10:52:00,42.0,33.0,30.03,NW,319,1.0,4.0,69,0.00,,,0.00,,2013-03-01 16:52:00,
2013-03-01 11:01:00,41.0,32.0,30.04,WSW,238,0.0,0.0,71,0.00,,,0.00,,2013-03-01 17:01:00,
2013-03-01 11:11:00,40.0,32.0,30.04,WSW,240,0.0,0.0,72,0.00,,,0.00,,2013-03-01 17:11:00,
2013-03-01 11:21:00,40.0,32.0,30.04,WSW,240,0.0,0.0,72,0.00,,,0.00,,2013-03-01 17:21:00,
2013-03-01 11:31:00,40.0,32.0,30.04,SW,214,1.0,0.0,72,0.00,,,0.00,,2013-03-01 17:31:00,
2013-03-01 11:41:00,40.0,32.0,30.03,WSW,248,2.0,0.0,73,0.00,,,0.00,,2013-03-01 17:41:00,
2013-03-01 11:52:00,40.0,32.0,30.03,WSW,248,2.0,0.0,73,0.00,,,0.00,,2013-03-01 17:52:00,
2013-03-01 12:01:00,40.0,32.0,30.03,SW,224,0.0,0.0,74,0.00,,,0.00,,2013-03-01 18:01:00,
2013-03-01 12:12:00,40.0,32.0,30.03,SW,224,0.0,0.0,74,0.00,,,0.00,,2013-03-01 18:12:00,
2013-03-01 12:22:00,40.0,33.0,30.03,WSW,242,3.0,6.0,75,0.00,,,0.00,,2013-03-01 18:22:00,
2013-03-01 12:31:00,40.0,33.0,30.03,West,264,3.0,0.0,75,0.00,,,0.00,,2013-03-01 18:31:00,
2013-03-01 12:41:00,40.0,33.0,30.02,WNW,293,2.0,0.0,77,0.00,,,0.00,,2013-03-01 18:41:00,
2013-03-01 12:52:00,40.0,33.0,30.02,WNW,293,2.0,0.0,77,0.00,,,0.00,,2013-03-01 18:52:00,
2013-03-01 13:01:00,39.0,33.0,30.02,West,274,0.0,0.0,78,0.00,,,0.00,,2013-03-01 19:01:00,
2013-03-01 13:11:00,39.0,33.0,30.02,West,274,0.0,0.0,78,0.00,,,0.00,,2013-03-01 19:11:00,
2013-03-01 13:21:00,39.0,32.0,30.01,NW,316,3.0,5.0,77,0.00,,,0.00,,2013-03-01 19:21:00,
2013-03-01 13:31:00,39.0,32.0,30.01,NW,314,1.0,0.0,77,0.00,,,0.00,,2013-03-01 19:31:00,
2013-03-01 13:42:00,39.0,32.0,30.01,NW,314,1.0,0.0,77,0.00,,,0.00,,2013-03-01 19:42:00,
2013-03-01 13:52:00,39.0,32.0,30.01,WNW,300,2.0,0.0,76,0.00,,,0.00,,2013-03-01 19:52:00,
2013-03-01 14:01:00,39.0,32.0,30.01,NW,321,0.0,0.0,76,0.00,,,0.00,,2013-03-01 20:01:00,
2013-03-01 14:11:00,39.0,32.0,30.01,NW,321,0.0,0.0,76,0.00,,,0.00,,2013-03-01 20:11:00,
2013-03-01 14:21:00,39.0,32.0,30.01,NW,316,4.0,0.0,76,0.00,,,0.00,,2013-03-01 20:21:00,
2013-03-01 14:31:00,39.0,32.0,30.01,West,262,2.0,0.0,76,0.00,,,0.00,,2013-03-01 20:31:00,
2013-03-01 14:41:00,39.0,32.0,30.01,West,262,2.0,0.0,76,0.00,,,0.00,,2013-03-01 20:41:00,
2013-03-01 14:52:00,39.0,33.0,30.01,WNW,301,0.0,6.0,78,0.00,,,0.00,,2013-03-01 20:52:00,
2013-03-01 15:01:00,39.0,32.0,30.01,NW,314,2.0,0.0,77,0.00,,,0.00,,2013-03-01 21:01:00,
2013-03-01 15:11:00,39.0,32.0,30.01,WNW,288,0.0,0.0,77,0.00,,,0.00,,2013-03-01 21:11:00,
2013-03-01 15:21:00,39.0,32.0,30.01,WNW,288,0.0,0.0,77,0.00,,,0.00,,2013-03-01 21:21:00,
2013-03-01 15:31:00,39.0,32.0,30.01,NW,311,0.0,0.0,77,0.00,,,0.00,,2013-03-01 21:31:00,
2013-03-01 15:41:00,39.0,32.0,30.01,WNW,294,0.0,0.0,77,0.00,,,0.00,,2013-03-01 21:41:00,
2013-03-01 15:51:00,39.0,32.0,30.01,WNW,294,0.0,0.0,77,0.00,,,0.00,,2013-03-01 21:51:00,
2013-03-01 16:01:00,39.0,32.0,30.01,NNW,346,1.0,0.0,77,0.00,,,0.00,,2013-03-01 22:01:00,
2013-03-01 16:11:00,39.0,32.0,30.01,WSW,246,2.0,0.0,77,0.00,,,0.00,,2013-03-01 22:11:00,
2013-03-01 16:21:00,39.0,32.0,30.01,WSW,246,2.0,0.0,77,0.00,,,0.00,,2013-03-01 22:21:00,
2013-03-01 16:31:00,38.0,32.0,30.01,West,273,0.0,0.0,78,0.00,,,0.00,,2013-03-01 22:31:00,
2013-03-01 16:41:00,38.0,32.0,30.01,West,273,0.0,0.0,78,0.00,,,0.00,,2013-03-01 22:41:00,
2013-03-01 16:52:00,38.0,32.0,30.01,West,270,4.0,5.0,79,0.00,,,0.00,,2013-03-01 22:52:00,
2013-03-01 17:01:00,38.0,33.0,30.01,West,278,1.0,0.0,81,0.00,,,0.00,,2013-03-01 23:01:00,
2013-03-01 17:11:00,38.0,33.0,30.01,West,278,1.0,0.0,81,0.00,,,0.00,,2013-03-01 23:11:00,
2013-03-01 17:21:00,38.0,33.0,30.01,WNW,287,0.0,0.0,81,0.00,,,0.00,,2013-03-01 23:21:00,
2013-03-01 17:31:00,37.0,32.0,30.02,NW,308,0.0,0.0,82,0.00,,,0.00,,2013-03-01 23:31:00,
2013-03-01 17:41:00,37.0,32.0,30.02,NW,308,0.0,0.0,82,0.00,,,0.00,,2013-03-01 23:41:00,
2013-03-01 17:52:00,37.0,32.0,30.02,NW,318,2.0,0.0,83,0.00,,,0.00,,2013-03-01 23:52:00,
2013-03-01 18:01:00,37.0,33.0,30.02,North,359,0.0,0.0,84,0.00,,,0.00,,2013-03-02 00:01:00,
2013-03-01 18:11:00,37.0,33.0,30.02,North,359,0.0,0.0,84,0.00,,,0.00,,2013-03-02 00:11:00,
2013-03-01 18:21:00,37.0,33.0,30.03,NW,319,0.0,0.0,85,0.00,,,0.00,,2013-03-02 00:21:00,
2013-03-01 18:31:00,37.0,33.0,30.03,NW,304,0.0,0.0,86,0.00,,,0.00,,2013-03-02 00:31:00,
2013-03-01 18:42:00,37.0,34.0,30.04,NW,319,2.0,0.0,88,0.00,,,0.00,,2013-03-02 00:42:00,
2013-03-01 18:52:00,37.0,34.0,30.04,NW,319,2.0,0.0,88,0.00,,,0.00,,2013-03-02 00:52:00,
2013-03-01 19:01:00,36.0,33.0,30.04,NW,311,1.0,0.0,88,0.00,,,0.00,,2013-03-02 01:01:00,
2013-03-01 19:11:00,36.0,33.0,30.05,West,269,0.0,0.0,88,0.00,,,0.00,,2013-03-02 01:11:00,
2013-03-01 19:21:00,36.0,33.0,30.05,West,269,0.0,0.0,88,0.00,,,0.00,,2013-03-02 01:21:00,
2013-03-01 19:31:00,36.0,33.0,30.05,West,280,1.0,0.0,89,0.00,,,0.00,,2013-03-02 01:31:00,
2013-03-01 19:41:00,36.0,33.0,30.05,West,280,1.0,0.0,89,0.00,,,0.00,,2013-03-02 01:41:00,
2013-03-01 19:52:00,36.0,33.0,30.05,SW,218,0.0,0.0,90,0.00,,,0.00,,2013-03-02 01:52:00,
2013-03-01 20:01:00,36.0,34.0,30.05,West,263,0.0,0.0,91,0.00,,,0.00,,2013-03-02 02:01:00,
2013-03-01 20:11:00,36.0,34.0,30.05,West,263,0.0,0.0,91,0.00,,,0.00,,2013-03-02 02:11:00,
2013-03-01 20:21:00,35.0,33.0,30.06,WSW,242,4.0,0.0,92,0.00,,,0.00,,2013-03-02 02:21:00,
2013-03-01 20:32:00,35.0,33.0,30.06,NNW,328,4.0,0.0,93,0.00,,,0.00,,2013-03-02 02:32:00,
2013-03-01 20:41:00,35.0,33.0,30.06,NNW,328,4.0,0.0,93,0.00,,,0.00,,2013-03-02 02:41:00,
2013-03-01 20:52:00,35.0,33.0,30.06,WNW,297,0.0,0.0,93,0.00,,,0.00,,2013-03-02 02:52:00,
2013-03-01 21:01:00,35.0,33.0,30.06,WNW,295,2.0,0.0,94,0.00,,,0.00,,2013-03-02 03:01:00,
2013-03-01 21:11:00,35.0,33.0,30.06,WNW,290,2.0,0.0,94,0.01,,,0.00,,2013-03-02 03:11:00,
2013-03-01 21:21:00,35.0,33.0,30.06,WNW,290,2.0,0.0,94,0.01,,,0.00,,2013-03-02 03:21:00,
2013-03-01 21:32:00,35.0,34.0,30.06,WNW,300,0.0,0.0,95,0.01,,,0.00,,2013-03-02 03:32:00,
2013-03-01 21:41:00,35.0,34.0,30.06,WNW,300,0.0,0.0,95,0.01,,,0.00,,2013-03-02 03:41:00,
2013-03-01 21:52:00,35.0,34.0,30.06,NNW,345,0.0,3.0,95,0.01,,,0.00,,2013-03-02 03:52:00,
2013-03-01 22:01:00,35.0,34.0,30.06,NW,304,0.0,4.0,95,0.01,,,0.00,,2013-03-02 04:01:00,
2013-03-01 22:11:00,35.0,34.0,30.06,WNW,291,0.0,4.0,96,0.00,,,0.00,,2013-03-02 04:11:00,
2013-03-01 22:21:00,35.0,34.0,30.06,WNW,291,0.0,4.0,96,0.00,,,0.00,,2013-03-02 04:21:00,
2013-03-01 22:32:00,34.0,33.0,30.05,West,270,0.0,0.0,96,0.00,,,0.00,,2013-03-02 04:32:00,
2013-03-01 22:42:00,34.0,33.0,30.05,West,270,0.0,0.0,96,0.00,,,0.00,,2013-03-02 04:42:00,
2013-03-01 22:52:00,34.0,33.0,30.05,WNW,285,1.0,3.0,96,0.00,,,0.00,,2013-03-02 04:52:00,
2013-03-01 23:01:00,34.0,33.0,30.05,WSW,256,0.0,0.0,97,0.00,,,0.00,,2013-03-02 05:01:00,
2013-03-01 23:12:00,34.0,33.0,30.05,WSW,256,0.0,0.0,97,0.00,,,0.00,,2013-03-02 05:12:00,
2013-03-01 23:22:00,34.0,33.0,30.05,WSW,256,0.0,0.0,97,0.00,,,0.00,,2013-03-02 05:22:00,
2013-03-01 23:32:00,34.0,33.0,30.05,West,264,0.0,0.0,97,0.00,,,0.00,,2013-03-02 05:32:00,
2013-03-01 23:41:00,34.0,33.0,30.05,West,264,0.0,0.0,97,0.00,,,0.00,,2013-03-02 05:41:00,
2013-03-01 23:52:00,34.0,33.0,30.05,NW,321,0.0,3.0,97,0.00,,,0.00,,2013-03-02 05:52:00,